Content
SEND FEEDBACK

Daily
Averages
Monthly
Summary
United States of America

BIG WATER, UTAH


Home > North America > United States > Utah
Elevation: 4166 feet     Latitude: 37 05N     Longitude: 111 40W

WEATHER
 
SELECT A DAY
Number of Records: 197,737;   Date Range: 1/1/95 - 11/19/14
 
SHARE

PRINT THIS DATA

[ ← Previous Day ]
WEATHER ALMANAC - APRIL 7, 2013
[ Next Day → ]
[ °C ]   °F
Weather ElementAverageHighLow
Temperature65.8 °F77 °F (1:53 pm)51.1 °F (5:53 am)
Dewpoint16.6 °F25 °F (10:53 am)7 °F (7:53 pm)
Humidity17 %33 % (5:53 am)8 % (2:53 pm)
Barometer29.67 in29.79 in (7:53 am)29.49 in (11:53 pm)
Wind Speed6.4 mph13.8 mph (12:53 pm)
Wind Gust26.5 mph (12:53 pm)
Weather ElementAverage
Visibility10 mi
Wind DirectionSSE (157.8 °)

Weather ElementTotal
Precipitation---
Heating Degree Days1 (Base 65)
Growing Degree Days14.1 (Base 50)
Averaged from 23 records on April 7, 2013
WEATHER CONDITIONS BREAKOUT
WIND DIRECTION BREAKOUT
WEATHER BY HOUR - APRIL 7, 2013
[ °C ]   °F
Local TimeTemperatureDewpointHumidityBarometerVisibilityWind DirectionWind SpeedGust SpeedPrecipitationEventsConditions
1:53 AM59.0 °F19.9 °F22 %29.75 in10.0 miENE (60°)3.5 mphClear
2:53 AM55.9 °F21.0 °F26 %29.74 in10.0 miCalmClear
3:53 AM55.0 °F21.9 °F28 %29.75 in10.0 miSE (140°)3.5 mphClear
4:53 AM53.1 °F21.9 °F30 %29.76 in10.0 miSE (140°)6.9 mphClear
5:53 AM51.1 °F23.0 °F33 %29.77 in10.0 miSSE (150°)8.1 mphClear
6:53 AM55.9 °F23.0 °F28 %29.78 in10.0 miCalmClear
7:53 AM59.0 °F24.1 °F26 %29.79 in10.0 miCalmClear
8:53 AM63.0 °F24.1 °F23 %29.78 in10.0 miEast (90°)3.5 mphClear
9:53 AM66.0 °F24.1 °F20 %29.76 in10.0 miCalmClear
10:53 AM69.1 °F25.0 °F19 %29.74 in10.0 miNE (50°)4.6 mphClear
11:53 AM72.0 °F23.0 °F16 %29.70 in10.0 miVariable6.9 mphClear
12:53 PM75.9 °F16.0 °F10 %29.67 in9.0 miWNW (290°)13.8 mph26.5 mphClear
1:53 PM77.0 °F16.0 °F10 %29.64 in10.0 miWest (270°)9.2 mph25.3 mphClear
2:53 PM75.9 °F10.9 °F8 %29.62 in10.0 miWest (280°)12.7 mph25.3 mphClear
3:53 PM75.9 °F10.0 °F8 %29.61 in10.0 miWest (260°)10.4 mph20.7 mphClear
4:53 PM75.9 °F12.9 °F9 %29.60 in10.0 miWNW (290°)11.5 mph23.0 mphClear
5:53 PM73.9 °F8.1 °F8 %29.59 in10.0 miWSW (250°)10.4 mph16.1 mphClear
6:53 PM71.1 °F8.1 °F9 %29.57 in10.0 miWest (260°)6.9 mph17.3 mphClear
7:53 PM70.0 °F7.0 °F9 %29.58 in10.0 miWest (260°)9.2 mphClear
8:53 PM68.0 °F10.0 °F11 %29.56 in10.0 miWest (260°)6.9 mphClear
9:53 PM64.9 °F10.9 °F12 %29.55 in10.0 miSSW (200°)5.8 mphClear
10:53 PM63.0 °F10.9 °F13 %29.53 in10.0 miSouth (190°)5.8 mphClear
11:53 PM62.1 °F9.0 °F12 %29.49 in10.0 miSouth (190°)6.9 mphClear
Hourly data recorded from KPGA, located miles away from Big Water, Utah







STORIES FROM OUR PARTNERS